Regional Weather Roundup
Issued by NWS Albany, NY

Home | Current Version | Previous Version | Graphics & Text | Print | Product List | Glossary On
Versions: 1 2 3 4 5 6 7 8 9 10 11 12 13 14 15 16 17 18 19 20 21 22 23 24 25 26 27 28 29 30 31 32 33 34 35 36 37 38 39 40 41 42 43 44 45 46 47 48 49 50
000
ASUS41 KALY 280610
RWRALY

NEW YORK STATE HOURLY WEATHER ROUNDUP
NATIONAL WEATHER SERVICE ALBANY NY
200 AM EDT MON JUL 28 2014

NOTE: "FAIR" INDICATES FEW OR NO CLOUDS BELOW 12,000 FEET WITH NO
SIGNIFICANT WEATHER AND/OR NO OBSTRUCTIONS TO VISIBILITY.

NYZ032-033-038>043-046>054-057>066-NYZ062>081-280700-
EAST


CITY           SKY/WX    TMP DP  RH WIND       PRES   REMARKS
ALBANY         CLOUDY    71  68  90 CALM      29.61F
GLENS FALLS    CLOUDY    64  61  90 N5        29.62F
POUGHKEEPSIE   LGT RAIN  73  69  87 CALM      29.59F
NEWBURGH       RAIN      72  70  94 W8        29.63F
MONTGOMERY     LGT RAIN  70  67  90 S6        29.61F
WHITE PLAINS   CLOUDY    73  72  96 CALM      29.62F THUNDER
ISLIP          CLOUDY    75  71  87 S7        29.62F
NEW YORK CITY  TSTM      77  72  84 S6        29.61F
CENTRAL PARK   RAIN      75  72  90 VRB3      29.64F FOG
$$

NYZ005>009-017-018-044>046-055-056-280700-
CENTRAL


CITY           SKY/WX    TMP DP  RH WIND       PRES   REMARKS
FULTON         LGT RAIN  66  62  87 CALM      29.60F
SYRACUSE       LGT RAIN  70  64  81 SE5       29.59F
ROME           CLOUDY    64  62  93 S6        29.62S
ELMIRA         CLOUDY    66  65  96 E7        29.60S
BINGHAMTON     MOCLDY    65  62  90 NE6       29.63F
MONTICELLO     CLOUDY    68  57  68 SE8       29.63F
$$

NYZ026>034-041>043-280700-
NORTH


CITY           SKY/WX    TMP DP  RH WIND       PRES   REMARKS
WATERTOWN      CLOUDY    65  59  81 NE9       29.59F
FORT DRUM      NOT AVBL
MASSENA        PTCLDY    61  61 100 CALM      29.64F FOG
SARANAC LAKE   MOCLDY    53  53 100 CALM      29.66F FOG
PLATTSBURGH    MOCLDY    62  61  96 S3        29.64F
$$

NYZ001>004-010>016-019>021-280700-
WEST


CITY           SKY/WX    TMP DP  RH WIND       PRES   REMARKS
NIAGARA FALLS  CLOUDY    65  63  93 N3        29.60F
BUFFALO        CLOUDY    65  62  90 N6        29.60F
DUNKIRK        CLOUDY    66  63  90 VRB3      29.60F
JAMESTOWN      CLOUDY    61  59  94 CALM      29.62F
WELLSVILLE     LGT RAIN  65  60  84 NW7       29.64F
ROCHESTER      TSTM      66  63  90 NE13      29.61F FOG
PENN YAN       LGT RAIN  67  64  90 S3        29.61R
$$

             KEY
       WCI = WIND CHILL INDEX
       VSB = VISIBILITY
       HX  = HEAT INDEX
$$


USA.gov is the U.S. government's official web portal to all federal, state and local government web resources and services.